Location: Kergrach
(48.3833°N, 4.5167°W)
Time: 18:19:58
(UTC+00:00)

PAYLOAD A - Pass Details

Date: 18 February 2020
Orbit: 692 x 831 km, 98.3° (Epoch: 29 March)

Event Time Altitude Azimuth Distance (km) Brightness Sun altitude
Rises 05:07:37 0° 9° (N) 3,125 7.4 -22.8°
Reaches altitude 10° 05:09:55 10° 4° (N) 2,216 6.5 -22.4°
Maximum altitude 05:14:35 49° 291° (WNW) 950 4.1 -21.6°
Enters shadow 05:14:40 49° 287° (WNW) 951 4.1 -21.6°
